Temp
-14 -15 -15 -15 -15 -15 -15 -15 -15 -14 -14 -14 -14 -14 -15 -15 -15 -15 -15 -15 -15 -14 -14 -14 -14 -14 -14 -15 -15 -15 -15 -15 -15 -15 -14 -14 -15 -15 -15 -15 -15 -15
-15 -15 -15 -15 -15 -15 -15 -15 -15 -14 -14 -14 -14 -14 -15 -15 -15 -15 -15 -15 -15 -14 -14 -15 -15 -15 -15 -15 -15 -15 -15 -15 -15 -15 -14 -14 -15 -15 -15 -15 -15 -15
-15 -15 -15 -15 -15 -15 -15 -15 -15 -15 -14 -14 -14 -14 -15 -15 -15 -15 -15 -15 -15 -14 -14 -15 -15 -15 -15 -15 -15 -15 -15 -15 -15 -15 -15 -15 -15 -15 -15 -15 -15 -15
-15 -15 -15 -15 -15 -15 -15 -15 -15 -15 -15 -15 -15 -15 -15 -15 -15 -15 -15 -15 -15 -15 -14 -15 -15 -15 -15 -15 -15 -15 -15 -15 -15 -15 -15 -15 -15 -15 -15 -15 -15 -15
-15 -15 -15 -15 -15 -15 -15 -16 -16 -15 -15 -15 -15 -15 -15 -15 -15 -15 -15 -15 -15 -15 -15 -15 -15 -15 -15 -15 -15 -15 -15 -15 -15 -15 -16 -16 -16 -15 -15 -15 -15 -15
-15 -15 -15 -15 -15 -15 -16 -16 -16 -15 -15 -15 -15 -15 -15 -15 -15 -15 -15 -15 -15 -15 -15 -15 -15 -15 -15 -15 -15 -16 -16 -16 -16 -16 -16 -16 -16 -16 -16 -16 -16 -16
-15 -15 -15 -15 -15 -15 -16 -16 -15 -15 -15 -15 -15 -15 -15 -15 -15 -15 -15 -15 -15 -15 -15 -15 -15 -15 -15 -15 -16 -16 -16 -16 -16 -16 -16 -16 -16 -16 -16 -16 -16 -16
-16 -15 -15 -15 -16 -16 -16 -16 -15 -15 -15 -15 -15 -15 -15 -15 -15 -15 -15 -15 -15 -15 -15 -15 -15 -16 -16 -16 -16 -16 -16 -17 -17 -17 -17 -17 -17 -17 -17 -17 -17 -17
-16 -16 -16 -16 -16 -16 -16 -15 -15 -15 -15 -15 -15 -15 -15 -15 -15 -15 -15 -16 -16 -16 -16 -16 -16 -16 -16 -16 -16 -16 -16 -17 -17 -17 -17 -17 -17 -17 -17 -17 -17 -17
-16 -16 -16 -16 -16 -16 -16 -16 -16 -15 -15 -15 -15 -15 -15 -15 -15 -16 -16 -16 -16 -16 -16 -16 -16 -16 -16 -16 -16 -17 -17 -17 -17 -17 -17 -17 -17 -17 -17 -17 -17 -17
-16 -16 -16 -16 -16 -16 -16 -16 -16 -16 -16 -16 -16 -16 -16 -16 -16 -16 -16 -16 -16 -16 -16 -16 -16 -16 -16 -16 -17 -17 -17 -17 -17 -17 -17 -17 -17 -17 -17 -17 -17 -17
-16 -16 -16 -16 -16 -16 -16 -16 -16 -16 -16 -16 -16 -16 -16 -16 -16 -16 -16 -16 -16 -16 -16 -16 -16 -17 -17 -17 -17 -17 -17 -17 -17 -17 -17 -17 -17 -17 -17 -18 -18 -18
-16 -16 -16 -17 -17 -17 -17 -17 -17 -17 -17 -17 -17 -16 -16 -16 -16 -16 -16 -16 -16 -16 -16 -17 -17 -17 -17 -17 -17 -17 -17 -17 -17 -17 -17 -17 -17 -18 -18 -18 -18 -18
-16 -17 -17 -17 -17 -17 -17 -17 -17 -17 -17 -17 -17 -17 -16 -16 -16 -16 -16 -16 -17 -17 -17 -17 -17 -17 -17 -17 -17 -17 -17 -17 -17 -17 -17 -17 -17 -17 -18 -18 -18 -18
-17 -17 -17 -17 -17 -17 -17 -17 -17 -17 -17 -17 -17 -17 -17 -17 -17 -17 -17 -17 -17 -17 -17 -17 -17 -17 -17 -17 -17 -17 -17 -17 -17 -17 -17 -17 -17 -17 -18 -18 -18 -18
-17 -17 -17 -17 -17 -17 -17 -17 -17 -17 -17 -17 -17 -17 -17 -17 -17 -17 -17 -17 -17 -17 -17 -17 -17 -17 -17 -17 -17 -17 -17 -17 -18 -18 -18 -18 -18 -18 -18 -18 -18 -18
-17 -17 -17 -17 -17 -17 -17 -17 -17 -17 -17 -17 -17 -17 -17 -17 -17 -17 -17 -17 -17 -17 -17 -17 -17 -17 -17 -17 -17 -17 -17 -17 -18 -18 -18 -18 -18 -18 -18 -18 -18 -18
-17 -17 -17 -17 -17 -18 -18 -18 -18 -18 -18 -17 -17 -17 -17 -17 -17 -17 -17 -17 -17 -17 -17 -17 -17 -17 -17 -17 -17 -17 -17 -17 -17 -18 -18 -18 -18 -18 -18 -18 -18 -18
-18 -18 -18 -18 -18 -18 -18 -18 -18 -18 -18 -18 -18 -18 -18 -18 -18 -18 -18 -18 -18 -18 -18 -17 -17 -17 -17 -17 -17 -17 -17 -17 -18 -17 -17 -18 -18 -18 -18 -18 -18 -19
-18 -18 -18 -18 -18 -18 -18 -18 -18 -18 -18 -18 -18 -18 -18 -18 -18 -18 -18 -18 -18 -18 -18 -18 -18 -18 -18 -18 -18 -18 -18 -18 -18 -18 -18 -18 -18 -18 -18 -18 -18 -19
-18 -18 -18 -18 -18 -18 -18 -18 -18 -18 -19 -18 -18 -18 -18 -18 -18 -18 -18 -18 -18 -18 -18 -18 -18 -18 -18 -18 -18 -18 -18 -18 -18 -18 -18 -18 -18 -18 -18 -18 -18 -19
-18 -18 -18 -18 -18 -18 -18 -18 -18 -18 -18 -18 -18 -18 -18 -18 -18 -18 -18 -18 -18 -18 -18 -18 -18 -18 -18 -18 -18 -19 -18 -18 -18 -18 -18 -18 -18 -18 -18 -18 -18 -18
-18 -18 -18 -18 -18 -18 -18 -18 -18 -18 -18 -18 -18 -18 -18 -18 -18 -18 -18 -19 -19 -18 -18 -18 -18 -18 -18 -18 -19 -19 -19 -18 -18 -18 -18 -18 -18 -18 -18 -18 -19 -19
-18 -18 -18 -18 -18 -18 -18 -18 -18 -18 -18 -18 -18 -18 -18 -18 -19 -19 -19 -19 -19 -19 -19 -18 -18 -19 -19 -19 -19 -19 -19 -19 -19 -18 -18 -18 -18 -19 -19 -19 -19 -19
-18 -18 -18 -18 -18 -18 -18 -18 -18 -18 -18 -18 -18 -18 -18 -18 -18 -18 -19 -19 -19 -19 -19 -19 -18 -19 -19 -19 -19 -19 -19 -19 -19 -19 -19 -19 -19 -19 -19 -19 -19 -19
-19 -19 -19 -19 -19 -19 -19 -19 -19 -19 -19 -18 -18 -18 -18 -18 -18 -18 -18 -18 -19 -19 -19 -19 -19 -19 -19 -19 -19 -19 -19 -19 -19 -19 -19 -19 -19 -19 -19 -19 -19 -19
Height
5778 5778 5778 5778 5779 5780 5781 5781 5782 5782 5781 5781 5781 5781 5782 5783 5783 5784 5784 5784 5784 5784 5785 5785 5785 5785 5785 5785 5785 5785 5785 5785 5785 5786 5786 5786 5787 5787 5787 5787 5787 5787
5776 5777 5777 5777 5778 5779 5780 5780 5781 5781 5780 5780 5780 5780 5780 5781 5782 5782 5782 5782 5782 5782 5782 5782 5782 5783 5783 5783 5783 5783 5783 5783 5783 5783 5784 5784 5784 5784 5784 5784 5784 5784
5774 5775 5775 5776 5777 5778 5778 5779 5779 5780 5780 5780 5779 5779 5779 5780 5780 5780 5780 5780 5780 5779 5780 5780 5780 5780 5780 5780 5780 5780 5780 5781 5781 5782 5782 5782 5782 5782 5782 5782 5782 5782
5773 5774 5774 5774 5775 5775 5776 5777 5778 5778 5778 5778 5778 5778 5778 5778 5778 5778 5778 5778 5778 5778 5778 5777 5777 5777 5778 5778 5778 5778 5779 5779 5779 5779 5780 5780 5780 5780 5780 5780 5780 5780
5771 5772 5772 5772 5772 5773 5774 5775 5776 5776 5776 5776 5776 5776 5777 5777 5777 5777 5777 5777 5777 5776 5776 5776 5775 5775 5775 5775 5776 5776 5777 5777 5777 5777 5778 5778 5778 5778 5778 5779 5779 5779
5769 5770 5770 5770 5770 5771 5771 5772 5774 5774 5774 5774 5774 5774 5775 5775 5775 5775 5775 5775 5775 5775 5775 5774 5774 5773 5773 5773 5773 5774 5774 5774 5774 5775 5775 5776 5776 5777 5777 5777 5777 5777
5767 5768 5768 5768 5769 5769 5770 5771 5772 5772 5773 5773 5773 5773 5773 5773 5773 5773 5773 5773 5773 5773 5773 5773 5773 5772 5772 5771 5771 5771 5772 5772 5772 5773 5773 5774 5774 5774 5775 5775 5776 5776
5765 5766 5766 5766 5767 5767 5768 5769 5770 5770 5771 5771 5771 5771 5771 5771 5771 5771 5771 5771 5771 5771 5771 5771 5771 5771 5770 5770 5770 5770 5770 5770 5771 5771 5771 5772 5772 5773 5773 5774 5774 5774
5762 5763 5764 5764 5765 5766 5767 5767 5768 5768 5768 5768 5768 5768 5769 5769 5769 5769 5769 5769 5769 5769 5769 5769 5769 5769 5769 5769 5769 5769 5769 5769 5770 5770 5770 5771 5771 5772 5772 5772 5773 5773
5759 5760 5761 5762 5763 5764 5765 5765 5765 5766 5766 5766 5766 5766 5766 5767 5767 5767 5767 5767 5767 5767 5767 5767 5767 5767 5767 5767 5767 5767 5767 5768 5768 5768 5769 5769 5770 5770 5770 5771 5771 5771
5757 5757 5758 5760 5761 5762 5762 5763 5763 5764 5764 5764 5764 5765 5765 5765 5765 5765 5766 5766 5765 5765 5765 5765 5765 5765 5765 5765 5765 5765 5765 5766 5766 5766 5767 5767 5767 5768 5768 5768 5768 5768
5754 5755 5756 5758 5759 5760 5760 5761 5761 5762 5762 5763 5763 5763 5764 5764 5764 5764 5764 5764 5764 5763 5763 5763 5763 5763 5763 5763 5763 5763 5763 5763 5764 5764 5764 5764 5764 5765 5765 5765 5765 5765
5752 5753 5754 5755 5756 5757 5758 5758 5759 5760 5760 5761 5761 5762 5762 5762 5762 5763 5763 5763 5762 5762 5762 5761 5761 5761 5761 5761 5761 5761 5761 5761 5761 5762 5762 5762 5762 5762 5762 5762 5762 5762
5749 5750 5751 5753 5754 5754 5755 5756 5757 5758 5758 5759 5759 5760 5760 5760 5760 5761 5761 5761 5761 5760 5760 5760 5759 5759 5759 5759 5759 5759 5759 5759 5759 5759 5759 5759 5759 5759 5759 5759 5759 5760
5746 5747 5749 5750 5751 5751 5752 5753 5754 5755 5756 5756 5757 5757 5757 5758 5758 5758 5758 5758 5758 5758 5758 5757 5757 5757 5757 5757 5757 5758 5758 5758 5758 5757 5757 5757 5757 5757 5757 5756 5756 5757
5742 5744 5745 5746 5747 5748 5750 5751 5751 5752 5753 5753 5754 5754 5755 5755 5755 5755 5755 5755 5755 5755 5755 5755 5754 5754 5755 5755 5755 5755 5755 5756 5756 5755 5755 5755 5754 5754 5754 5754 5754 5754
5739 5741 5742 5743 5744 5745 5746 5747 5748 5749 5750 5750 5751 5751 5752 5752 5752 5752 5752 5752 5752 5752 5752 5752 5751 5751 5751 5752 5752 5752 5752 5752 5753 5753 5753 5752 5752 5751 5751 5751 5751 5751
5737 5738 5739 5740 5741 5741 5743 5744 5744 5745 5746 5747 5747 5748 5748 5749 5749 5749 5749 5749 5748 5748 5748 5748 5748 5748 5748 5748 5748 5748 5748 5749 5749 5749 5749 5748 5748 5748 5747 5747 5747 5747
5735 5735 5736 5736 5737 5738 5739 5740 5741 5742 5742 5743 5743 5744 5744 5745 5745 5745 5745 5744 5744 5743 5743 5744 5744 5744 5744 5744 5744 5744 5744 5745 5745 5744 5744 5744 5744 5743 5743 5743 5743 5742
5731 5731 5732 5732 5733 5734 5735 5736 5737 5737 5738 5738 5739 5739 5739 5739 5740 5740 5740 5740 5739 5739 5739 5739 5739 5739 5739 5740 5740 5740 5740 5739 5739 5740 5740 5739 5739 5739 5739 5739 5738 5738
5725 5726 5726 5726 5728 5729 5730 5731 5732 5732 5732 5733 5733 5733 5733 5734 5735 5735 5735 5734 5734 5734 5734 5734 5734 5734 5734 5735 5735 5735 5736 5735 5734 5735 5735 5735 5735 5735 5734 5734 5734 5733
5720 5720 5721 5721 5722 5723 5724 5725 5726 5726 5727 5727 5728 5728 5728 5729 5729 5730 5729 5729 5728 5728 5728 5728 5729 5728 5728 5729 5729 5729 5730 5730 5730 5729 5729 5729 5730 5730 5730 5729 5729 5728
5714 5715 5715 5716 5717 5718 5718 5719 5720 5720 5721 5722 5722 5722 5723 5723 5723 5724 5723 5723 5722 5721 5722 5722 5723 5722 5722 5722 5723 5723 5723 5724 5724 5723 5723 5722 5723 5724 5724 5724 5724 5723
5707 5708 5708 5709 5710 5711 5711 5712 5712 5713 5714 5715 5715 5716 5716 5716 5716 5717 5717 5716 5715 5715 5715 5716 5717 5716 5715 5715 5716 5716 5716 5716 5716 5716 5716 5716 5716 5717 5717 5718 5718 5718
5701 5701 5702 5702 5703 5703 5704 5704 5705 5706 5706 5707 5707 5708 5708 5709 5709 5709 5710 5709 5709 5709 5709 5710 5710 5710 5709 5709 5709 5709 5709 5709 5709 5709 5709 5709 5709 5709 5710 5710 5711 5710
5695 5695 5695 5696 5696 5697 5697 5697 5697 5698 5698 5699 5699 5700 5700 5701 5701 5702 5702 5702 5702 5702 5703 5703 5703 5703 5702 5702 5702 5701 5702 5702 5702 5702 5702 5702 5701 5702 5703 5704 5704 5703
Wind_Speed
5 6 7 8 8 9 10 10 10 11 11 12 13 14 14 13 12 13 14 16 17 17 17 17 16 15 13 12 12 11 11 10 10 10 10 10 10 10 10 10 11 11
4 5 7 8 7 7 8 8 8 9 9 8 8 10 11 11 11 11 12 13 14 15 16 17 17 16 15 14 13 12 12 11 11 11 10 10 10 10 10 10 10 11
6 6 9 11 11 11 11 10 10 9 9 8 7 6 7 7 8 8 8 9 10 11 13 15 16 17 16 16 15 14 13 13 13 12 12 12 11 11 11 11 11 11
8 8 10 12 15 16 16 15 13 12 11 10 8 7 6 5 6 6 7 8 8 9 9 11 14 15 16 16 15 15 15 14 13 13 13 12 12 12 12 12 12 12
10 11 12 13 15 17 17 16 14 14 13 11 9 8 7 7 7 7 8 8 9 9 9 10 11 12 14 14 15 15 15 14 14 13 12 12 12 12 12 12 12 12
11 13 14 14 14 14 13 13 14 14 13 11 10 9 9 8 8 8 8 9 9 10 10 11 11 12 13 13 14 15 15 15 14 13 13 12 12 12 12 12 12 13
12 13 13 13 13 13 13 14 14 14 13 12 11 11 10 10 9 8 9 9 10 10 10 11 12 12 13 13 13 13 13 14 13 13 13 13 12 12 12 12 13 13
12 12 11 12 13 14 15 15 15 14 14 13 13 12 12 10 9 9 9 10 10 11 11 11 11 12 12 12 12 12 12 12 12 12 12 13 13 13 12 13 13 14
13 12 12 13 14 15 16 16 16 16 16 16 15 14 12 11 10 9 10 10 10 10 10 11 12 12 12 12 11 11 11 11 12 12 12 13 13 13 14 14 15 15
16 15 14 15 16 17 17 18 18 18 18 17 16 15 13 12 11 10 11 10 10 10 10 11 12 12 13 13 12 12 12 12 12 12 12 13 13 14 15 16 17 17
17 16 16 17 18 18 19 19 19 18 17 16 15 15 14 13 12 12 12 12 12 12 12 13 13 13 14 14 14 15 15 14 14 14 14 14 14 15 15 16 17 18
18 18 18 18 19 19 19 19 18 17 16 16 16 15 14 13 13 13 13 13 14 14 14 15 14 14 15 15 15 16 16 16 16 16 16 16 17 18 18 18 18 18
19 19 20 19 19 19 19 19 18 17 16 16 16 15 14 14 14 14 15 15 16 16 16 16 15 15 15 15 16 16 17 17 18 18 19 19 19 20 21 21 20 19
19 20 21 20 19 19 19 19 18 17 15 15 16 16 15 15 15 15 16 17 17 17 17 17 17 16 17 17 18 18 19 20 20 21 22 22 22 21 22 22 21 20
20 21 20 20 19 19 18 17 18 17 16 15 16 17 17 17 17 17 18 19 19 19 19 19 18 18 19 20 21 22 22 23 23 24 24 24 24 23 22 21 21 21
19 19 19 18 19 19 18 17 18 19 18 18 18 19 19 19 19 20 20 21 21 21 21 20 20 20 20 21 23 24 25 25 25 26 26 27 26 26 24 23 22 23
16 18 19 19 19 20 19 19 20 20 21 21 21 20 20 20 21 21 21 22 22 22 22 21 21 21 21 22 23 25 27 28 28 29 29 29 29 28 28 27 27 26
18 20 20 20 20 21 21 21 21 21 21 21 21 21 21 21 22 22 22 22 23 23 22 22 22 22 23 24 25 26 28 29 30 31 32 33 32 31 31 31 31 31
21 20 21 22 23 24 24 24 24 23 22 22 22 22 22 23 23 23 24 25 25 25 25 24 24 25 26 27 27 29 30 30 30 31 32 33 33 33 33 34 34 33
24 24 25 26 27 27 27 27 27 26 25 25 25 25 25 26 26 27 27 27 28 29 29 28 28 28 29 29 29 31 32 33 33 32 31 31 32 33 34 33 33 32
29 29 30 31 31 30 30 30 30 30 29 29 29 30 30 31 31 31 32 32 33 34 34 33 32 31 31 32 33 34 34 36 37 35 34 34 33 33 33 33 32 32
33 33 34 34 34 34 34 34 34 34 34 34 34 35 35 35 35 35 36 37 38 39 39 37 35 33 34 36 37 37 38 38 39 39 39 38 37 36 36 36 36 36
38 38 38 38 37 37 38 38 38 38 38 38 38 39 39 39 39 39 39 40 41 42 40 39 38 37 37 40 41 42 42 42 41 41 42 42 42 40 40 40 40 40
42 42 42 42 42 42 42 43 43 42 42 42 42 43 43 43 42 41 41 41 41 41 41 40 40 40 41 44 46 46 46 45 45 44 44 45 45 44 43 43 42 42
46 47 47 47 47 47 47 46 46 46 46 47 47 47 46 44 43 42 42 41 41 41 42 43 44 44 47 49 51 50 49 48 48 48 47 48 48 47 46 44 43 43
48 49 51 51 52 52 51 51 50 50 50 51 51 51 50 48 46 45 45 44 44 44 45 46 48 50 53 55 54 52 51 50 49 50 50 50 50 49 48 47 46 46
Wind_Direction
271 257 255 262 263 262 264 266 269 273 278 280 277 270 266 263 261 258 261 265 268 271 273 275 275 274 275 274 273 273 271 270 270 269 269 269 269 271 273 276 278 279
269 257 250 253 250 249 255 259 264 269 274 279 275 268 264 262 263 263 264 268 270 271 271 269 267 267 267 266 267 269 269 268 269 270 270 270 272 273 274 276 277 280
271 268 253 247 242 243 249 256 262 262 263 265 262 258 258 258 261 265 268 276 281 281 276 269 264 264 263 261 262 262 262 263 264 267 270 272 273 273 275 276 276 277
261 260 252 247 245 246 251 257 260 257 254 253 251 251 254 259 266 274 280 286 292 295 291 277 267 263 262 260 260 260 261 263 264 266 270 273 274 275 276 275 275 275
253 253 250 246 245 247 251 255 254 250 246 244 245 249 255 264 273 283 291 297 300 299 295 285 272 262 259 259 258 259 260 262 265 267 270 273 274 276 276 277 277 277
251 249 246 241 238 241 245 247 245 243 242 240 242 248 254 260 269 280 290 297 302 300 293 284 277 268 262 258 255 256 256 257 261 263 266 269 271 273 275 276 276 276
245 240 236 231 228 231 237 240 239 238 238 239 243 249 255 259 266 278 288 295 299 299 295 287 281 277 271 264 259 256 256 257 259 261 264 267 270 272 274 275 276 278
239 229 221 218 218 224 231 235 236 237 239 244 248 252 256 259 266 276 285 293 296 298 299 297 291 286 280 275 271 267 267 268 268 270 272 273 275 276 277 279 280 282
233 223 215 214 216 223 229 233 236 240 244 248 251 253 256 261 268 277 284 290 292 293 295 296 296 294 289 286 283 280 281 282 282 283 283 282 282 281 281 281 281 281
228 222 221 220 222 227 232 236 240 243 245 247 249 250 254 259 266 275 283 287 290 291 292 293 294 293 291 290 289 288 289 291 292 293 292 291 290 288 286 284 282 281
222 223 226 226 228 231 234 237 240 242 244 245 247 248 250 255 262 268 274 278 283 286 289 291 291 290 289 290 289 289 292 295 298 299 299 299 298 296 294 290 286 284
217 222 227 227 229 232 234 236 238 240 244 247 249 250 251 255 258 262 266 269 273 278 281 283 285 286 286 287 289 289 291 293 296 299 302 304 304 303 300 295 290 287
217 222 225 225 228 233 236 238 239 241 246 250 251 252 254 258 261 264 267 269 272 276 279 280 282 283 283 284 285 285 287 290 293 295 298 300 301 300 299 296 293 290
222 220 222 225 229 234 237 238 239 240 245 248 248 250 254 258 261 265 267 268 271 275 277 279 281 282 283 282 282 282 283 285 288 290 292 294 295 294 294 293 292 290
224 221 223 228 230 232 233 235 237 239 243 245 245 250 255 256 258 261 263 265 266 268 271 274 277 279 281 282 282 283 283 285 286 288 288 289 289 289 288 286 285 285
220 220 226 231 231 231 233 235 239 242 246 246 246 250 253 253 254 257 259 261 262 264 265 268 270 274 277 280 281 282 282 284 287 288 288 289 288 287 284 280 279 281
233 235 239 239 234 235 238 242 244 245 247 247 247 248 249 249 250 252 255 259 261 263 265 267 269 273 276 277 279 280 281 283 284 285 285 285 286 285 283 280 278 278
256 249 248 245 242 244 247 249 248 247 248 247 248 250 250 250 252 253 256 258 259 262 266 267 268 271 274 276 279 281 283 284 285 283 281 280 279 280 280 280 280 279
260 254 251 248 247 249 250 250 250 250 249 248 250 252 253 255 259 260 261 262 261 262 265 266 267 270 273 276 280 283 285 285 284 282 281 280 278 277 277 278 279 280
259 256 253 251 251 251 251 253 253 253 252 251 253 255 256 260 265 266 265 265 264 265 267 268 270 273 275 278 281 283 285 285 283 282 280 279 279 279 279 279 278 278
256 255 254 255 256 256 256 255 255 254 254 254 255 256 258 261 265 265 264 264 266 268 269 269 271 273 277 280 282 283 283 283 283 282 281 280 280 279 279 279 279 278
260 261 262 262 262 262 261 259 257 257 257 257 257 258 259 261 263 263 263 264 268 270 269 268 267 270 276 282 285 285 282 280 280 281 282 282 280 278 277 278 278 279
267 267 267 266 265 265 264 263 263 262 261 260 259 258 259 261 263 263 263 265 268 269 267 264 263 268 277 283 286 286 283 280 278 279 280 280 280 278 278 278 278 278
268 268 268 268 267 266 266 267 267 267 265 264 263 263 263 263 262 262 263 265 266 264 262 260 261 268 277 282 284 284 283 280 278 278 278 279 279 280 280 279 278 278
267 268 269 270 269 268 268 269 269 269 268 267 267 268 266 263 261 261 264 265 264 261 259 258 260 267 274 279 281 281 280 279 278 278 278 278 278 280 280 280 280 279
268 269 270 270 270 269 269 270 270 269 269 269 269 270 268 264 263 264 264 264 263 261 260 260 262 268 274 278 279 278 277 277 276 277 277 277 278 278 278 278 279 279